Погода Тангуй

Погода Тангуй : погода сейчас, прогноз погоды и архив. Всё, что Вы хотите узнать о погоде Тангуй!

Хотите узнать прогноз погоды Тангуй? Тогда Вам сюда: Погода Тангуй

Поиск расширенной информации на нашем сайте:

Другие новости

Новости СМИ2

Главная страница сайта

Новости сайта

03.07.2017

Напоминаем, что на нашем специализированном сайте Метеоцентр.Азия вы можете получить высокодетализированные автоматические прогнозы погоды по пунктам России, СНГ и мира в авиационном формате (включающие направление и скорость ветра, видимость, явления погоды, количество и форму облачности, нижнюю и верхнюю границу облачности).


Погода Тангуй - сегодня

Время (UTC), дата Ветер
(°,м/с) 
Видим.   Явления Облачность Т
(°С)
Тd
(°С)
f(%) Тe
(°С)
Pmin
(гПа)
dP
(гПа)
Po
(мм)
O2
(г/м3)
Тmin Tmax R s Состояние
почвы
09 17.10.18 330 (СЗ) 20000 м    10/0 средняя, верхняя 
[Ac trans|Cs]
+5.5 +1.1 73 +6  1022.9  0.1  729  288           
12 17.10.18 тихо ()   н/о    4/0 верхняя 
[Ci fib]
+0.4 -0.5 94 1024.9  729  293    +6.6       
15 17.10.18 тихо ()   н/о    10/0 верхняя 
[Ci fib]
-1.3 -2.1 94 -1  1025.3  0.1  729  296           
18 17.10.18 тихо ()   н/о  туман  10/0 верхняя 
[Ci fib]
-1.6 -2.1 96 -2  1025  -0.4  729  296           
21 17.10.18 тихо ()   н/о  туман  10/0 верхняя 
[Ci fib]
-2.7 -3.2 96 -3  1024.5  -0.7  729  297           
00 18.10.18 020 (С) 0200 м  туман  10/0 верхняя 
[Ci fib]
-1.6 -2.1 96 -1  1023.9  -0.4  728  295  -2.8         
03 18.10.18 тихо ()   0500 м  туман  10/0 верхняя 
[Ci fib]
+2 +1.5 96 +2  1022.8  -0.2  728  291           
06 18.10.18 200 (Ю) 20000 м  {туман}  6/0 верхняя 
[Ci fib]
+6.2 +3.1 81 +6  1020  -2  727  286           
09 18.10.18 240 (ЮЗ) 20000 м    10/0 верхняя 
[Cs]
+5.4 +2.8 83 +5  1019.9  -0.2  727  287           
12 18.10.18 240 (ЮЗ) н/о    10/0 верхняя 
[Ci fib]
+2.4 +1.5 94 +2  1021.1  0.6  727  290    +7.9       
15 18.10.18 тихо ()   н/о  дымка  ясно 
+0 -0.5 96 1022.4  0.8  728  293           
18 18.10.18 тихо ()   н/о  дымка  ясно 
-0.6 -1 97 -1  1023.2  0.6  728  294           
21 18.10.18 тихо ()   н/о  дымка  ясно 
+0.5 +0 96 +1  1022.5  -0.4  728  293           
00 19.10.18 тихо ()   20000 м    10/10 1000 м 
[Sc]
-0.1 -0.6 96 -0  1023  0.3  728  293  -1.3         
03 19.10.18 050 (СВ) 20000 м    10/4 600 м кучево-дожд., средняя 
[Cb cap|Ac und]
+2.4 +1 90 +3  1022.1  -0.3  728  290           
06 19.10.18 060 (СВ) 20000 м    10/8 600 м кучево-дожд., верхняя 
[Cb cap|Cs]
+5.1 +0.7 73 +5  1019.5  -2  726  287           
09 19.10.18 060 (СВ) 20000 м    10/6 600 м кучево-дожд., верхняя 
[Cb cap|Cs]
+5.5 +0.1 68 +6  1018.4  -1  725  286           
12 19.10.18 020 (С) н/о    10/8 600 м кучево-дожд., верхняя 
[Cb cap|Cs]
+4 +0.2 76 +4  1018.5  -0.2  725  288    +6.2       
15 19.10.18 360 (С) н/о    10/0 средняя, верхняя 
[Ac trans|Ci fib]
-0.1 -1.7 89 +1  1019  -0.3  725  292           
18 19.10.18 010 (С) н/о    10/8 1000 м верхняя 
[Sc|Ci fib]
+1.6 -0.9 83 +1  1017.9  -0.7  725  290           
21 19.10.18 330 (СЗ) н/о    10/10 1000 м 
[Sc]
+1.6 -1.9 78 +2  1017.7  -0.2  724  290           
00 20.10.18 320 (СЗ) 20000 м    10/10 1000 м 
[Sc]
+1.1 -2.4 77 +2  1018.1  0.3  725  291  -0.4         
03 20.10.18 340 (С) 20000 м    10/5 600 м кучево-дожд., средняя 
[Cb cap|Ac und]
+1.5 -2.5 75 +1  1018.6  0.5  725  291           
06 20.10.18 360 (С) 20000 м    9/9 600 м кучево-дожд. 
[Cb cap]
+3.9 -3.8 57 +3  1018  -0.1  725  288           
09 20.10.18 340 (С) 20000 м    9/5 600 м кучево-дожд., средняя 
[Cb cap|Ac trans]
+3.7 -4.3 56 +5  1019.1  726  289           
Время (UTC), дата Ветер
(°,м/с) 
Видим.   Явления Облачность Т
(°С)
Тd
(°С)
f(%) Тe
(°С)
Pmin
(гПа)
dP
(гПа)
Po
(мм)
O2
(г/м3)
Тmin Tmax R s Состояние
почвы

Для получения пояснительной информации подведите курсор к названию столбца.

ПОГОДА Тангуй - архив

Всё, что Вы хотите узнать о погоде Тангуй - удобно и подробно!

Выберите нужную дату (начиная с 1 января 2015* года) и нажмите кнопку "Найти".
Будут отображены архивные сводки погоды по пункту Тангуй, начиная с указанной даты.


Отображать данные в формате CSV (для использования в таблицах Excel)


Внимание! Наш архив погоды предназначен исключительно для личного некоммерческого использования в познавательных целях. Если Вам необходимы официальные справки о состоянии погоды (для производственных, юридических, коммерческих и т.п. целей), обращайтесь в органы Росгидромета.

*Примечание: данная дата относится к архиву по метеостанциям СССР (Россия, СНГ, Балтия).
Архив по метеостанциям Зарубежной Европы и Азии (кроме Китая) хранится 10 дней, по другим регионам земного шара (Китай, Африка, Америка, Австралия, Океания) - 1 день.

Тангуй - район местоположения метеостанции


Название, широта, долгота, высота метеостанции:
Тангуй 55.4°ш. 101°д. 423 м над ур. моря [Российская Федерация]

Дополнительная информация

В oтличие oт бoльшинства пoгoдных сайтoв мы публикуем пoдрoбную метеoинфoрмацию в детальнoм прoфессиoнальнoм фoрмате.

Характеристики температуры и влажнoсти вoздуха измеряются на высoте 2 м в тени вдали oт зданий и деревьев.
Скoрoсть ветра измеряется на высoте 10 м (на урoвне рoста челoвека скoрoсть ветра ниже в 1.5-2 раза). Если метеoстанция нахoдится в гoрoде или в лесу, тo скoрoсть ветра занижена на 2-4 м/с пo сравнению с oткрытым местoм. Скoрoсть ветра над акватoриями крупных рек и oзёр, а также на вершинах хoлмoв на 2-5 м/с выше, чем в oбычных услoвиях.
Атмoсфернoе давление в разных тoчках местнoсти мoжет значительнo oтличаться oт давления на метеoстанции, в зависимoсти oт услoвий рельефа (при пoдъёме на 10 м давление пoнижается примернo на 1 мм рт.ст.).